[[{"header":{"parameterUnit":"m.s-1","parameterCategory":1,"la1":30.2991,"la2":30.254,"lo1":-89.0895,"lo2":-89.0444,"dy":0.0017,"dx":0.0017,"nx":28,"ny":28,"refTime":"2024-02-20T09:00:00:Z","depth":0,"parameterNumber":2,"parameterNumberName":"U-component_of_WINDS"},"data":[0,0,0,0,0,0,0,0,0,0,0,0,0,0,0,0,0,0,0,0,0,0,0,0,0,0,0,0,0,0,0,0,0,0,0,0,0,0,0,0,0,0,0,0,0,0,0,0,0,0,0,0,0,0,0,0,0,0,2.3671,2.3672,0,2.3796,2.3798,2.3799,2.3712,2.3708,2.3704,2.37,2.3832,2.3839,2.3846,0,0,0,0,0,0,0,0,0,0,0,0,0,2.336,2.3366,2.3671,2.3672,2.3674,2.3796,2.3798,2.3799,2.3713,2.3708,2.3703,2.3698,2.3829,2.3838,2.3846,0,0,0,0,0,0,0,0,0,0,0,0,0,2.3491,2.3368,2.3671,2.3645,2.3644,2.3796,2.3798,2.38,2.3714,2.3708,2.3702,2.3696,2.3827,2.3837,2.3848,2.4032,0,0,2.388,2.3885,0,0,0,0,0,0,0,0,2.3484,2.3502,2.3648,2.3647,2.3646,2.3732,2.3736,2.3878,2.3715,2.3687,2.37,2.3693,2.3804,2.3816,2.3852,2.4038,2.4043,2.3881,2.3888,2.3893,2.3896,0,0,0,0,0,0,0,2.3475,2.3497,2.372,2.365,2.3649,2.3629,2.3641,2.3762,2.3777,2.3689,2.3683,2.3699,2.3802,2.3842,2.3855,2.4045,2.3881,2.3891,2.3897,2.3901,2.4389,2.4395,0,0,0,0,0,0,2.3467,2.349,2.3716,2.3724,2.3549,2.3639,2.3653,2.3711,2.3775,2.378,2.3704,2.3695,2.3827,2.3842,2.3859,2.4079,2.3892,2.3902,2.3909,2.4382,2.439,2.4397,0,0,0,0,0,0,2.3461,2.3488,2.3711,2.3605,2.3632,2.3651,2.3717,2.3716,2.3756,2.3787,2.3789,2.3742,2.3823,2.3844,2.3989,2.4083,2.3907,2.3917,2.4374,2.4384,2.4393,2.4521,0,0,0,0,0,0,2.3452,2.3487,2.3556,2.3608,2.3638,2.3839,2.3722,2.3723,2.3775,2.3763,2.3823,2.3827,2.382,2.3974,2.4,2.4094,2.3925,2.4366,2.4379,2.439,2.4509,2.4534,2.4556,0,0,0,0,0,2.3442,2.3588,2.356,2.3588,2.3725,2.3845,2.3862,2.385,2.3782,2.3853,2.3872,2.3825,2.4068,2.3989,2.4018,2.4117,2.436,2.4375,2.4389,2.4498,2.4529,2.4555,0,0,0,0,0,0,2.3548,2.3594,2.3564,2.3731,2.3785,2.383,2.3918,2.3883,2.3958,2.3944,2.3927,2.3941,2.4093,2.4119,2.4031,2.4299,2.4203,2.4225,2.4276,2.4306,2.4329,2.432,2.3934,0,0,0,0,0,2.3591,2.3683,2.3718,2.3863,2.3891,2.39,2.3952,2.3937,2.3993,2.4015,2.4045,2.4102,2.419,2.4249,2.4333,2.4512,2.4524,2.4594,2.4617,2.4636,2.4656,2.4753,2.4784,2.4445,2.4445,2.4445,0,0,2.3681,2.3717,2.3777,2.3885,2.3925,2.4022,2.392,2.4027,2.4099,2.4032,2.4171,2.4195,2.4256,2.4419,2.4493,2.4446,2.4752,2.4655,2.467,2.4679,2.4771,2.4803,2.4832,2.4455,2.4453,2.4452,0,0,2.3894,2.393,2.4054,2.4096,2.4157,2.4162,2.4192,2.4243,2.4256,2.4395,2.4347,2.4432,2.4586,2.4632,2.4675,2.4905,2.4865,2.4933,2.5056,2.5151,2.5178,2.5202,2.5285,2.5315,2.4951,2.4952,2.4952,0,2.3998,2.4141,2.4123,2.4233,2.4283,2.4225,2.4351,2.4393,2.4479,2.4515,2.4461,2.4652,2.4689,2.4862,2.4918,2.4955,2.499,2.4927,2.5175,2.5199,2.5221,2.53,2.5331,2.496,2.4959,2.4958,2.4957,0,2.4267,2.4367,2.446,2.4543,2.4603,2.4721,2.4721,2.4784,2.4764,2.4776,2.4918,2.496,2.5052,2.5091,2.5074,2.5263,2.5232,2.5177,2.5081,2.5261,2.5336,2.5366,2.4971,2.4968,2.4966,2.4964,0,0,2.4552,2.4623,2.4658,2.4695,2.4757,2.4835,2.495,2.5038,2.5093,2.5154,2.5251,2.5382,2.5331,2.5381,2.5367,2.5451,2.5631,2.5386,2.5387,2.5431,2.5843,2.5885,2.592,2.5604,2.561,2.5614,2.5838,0,2.4769,2.497,2.4956,2.5145,2.5238,2.5184,2.5285,2.5335,2.5348,2.5429,2.5444,2.5537,2.5463,2.5493,2.5573,2.5592,2.5714,2.5576,2.5696,2.57,2.5683,2.5959,2.6003,2.6213,2.5867,2.5872,2.5875,0,2.505,2.512,2.5318,2.5366,2.5405,2.5495,2.5575,2.5653,2.5709,2.5712,2.5768,2.574,2.5858,2.5758,2.592,2.5827,2.5874,2.5892,2.5899,2.5911,2.58,2.5979,2.6279,2.6311,2.5921,2.5917,2.5914,0,2.524,2.5383,2.552,2.5553,2.5613,2.5678,2.5707,2.5756,2.581,2.588,2.5915,2.5998,2.6044,2.6109,2.6105,2.6033,2.627,2.617,2.6278,2.6278,2.6332,2.6329,2.6645,2.6361,2.636,2.636,2.6359,0,2.5485,2.5608,2.5606,2.569,2.5827,2.5811,2.5947,2.5968,2.6013,2.6101,2.606,2.6144,2.6133,2.6218,2.6216,2.6351,2.6372,2.6379,2.6377,2.6384,2.6383,2.6416,2.6402,2.6368,2.6366,2.6365,2.6363,0,2.5721,2.5724,2.5869,2.5914,2.5928,2.6027,2.6066,2.6146,2.6155,2.6268,2.6293,2.6308,2.6406,2.6408,2.652,2.6519,2.6684,2.6665,2.6665,2.6662,2.677,2.6761,2.712,2.7167,2.6851,2.6854,2.6857,0,2.5877,2.5971,2.6025,2.6081,2.6113,2.6203,2.6257,2.6245,2.6303,2.6373,2.6446,2.6539,2.6613,2.6772,2.6793,2.6879,2.6863,2.6983,2.6876,2.6879,2.6866,2.6861,2.6871,2.7004,2.7008,2.7011,2.7013,0,2.6156,2.6152,2.6232,2.6312,2.6378,2.6441,2.6499,2.6547,2.6541,2.6609,2.6708,2.6765,2.6879,2.6973,2.7056,2.7085,2.705,2.7046,2.7076,2.7084,2.7081,2.7085,2.6724,2.7038,2.7036,2.7034,2.7033,2.7032,2.6358,2.6439,2.6489,2.6579,2.6621,2.6676,2.6754,2.6773,2.6854,2.6945,2.6933,2.7043,2.7096,2.7204,2.724,2.7327,2.7286,2.7329,2.734,2.7351,2.7363,2.7066,2.7342,2.7341,2.7341,2.734,2.7339,0,2.6635,2.6665,2.6747,2.683,2.6901,2.6858,2.692,2.6983,2.708,2.7132,2.7205,2.7319,2.7409,2.7438,2.7525,2.7589,2.7575,2.7613,2.7609,2.7617,2.7395,2.7361,2.7623,2.7623,2.7623,2.7623,2.7623,2.7623,2.6788,2.6923,2.6925,2.7081,2.7109,2.7216,2.7255,2.7306,2.7348,2.7476,2.7551,2.7568,2.7611,2.7701,2.7783,2.7788,2.7823,2.7869,2.7868,2.7661,2.7632,2.7605,2.7573,2.7876,2.7876,2.8083,2.8085,2.8087]},{"header":{"parameterUnit":"m.s-1","parameterCategory":1,"la1":30.2991,"la2":30.254,"lo1":-89.0895,"lo2":-89.0444,"dy":0.0017,"dx":0.0017,"nx":28,"ny":28,"refTime":"2024-02-20T09:00:00:Z","depth":0,"parameterNumber":3,"parameterNumberName":"V-component_of_WINDS"},"data":[0,0,0,0,0,0,0,0,0,0,0,0,0,0,0,0,0,0,0,0,0,0,0,0,0,0,0,0,0,0,0,0,0,0,0,0,0,0,0,0,0,0,0,0,0,0,0,0,0,0,0,0,0,0,0,0,0,0,-0.2672,-0.267,0,-0.2498,-0.2496,-0.2494,-0.2453,-0.2454,-0.2455,-0.2456,-0.2272,-0.2266,-0.226,0,0,0,0,0,0,0,0,0,0,0,0,0,-0.2962,-0.2957,-0.2672,-0.267,-0.2667,-0.2498,-0.2496,-0.2494,-0.2453,-0.2454,-0.2456,-0.2457,-0.2274,-0.2267,-0.226,0,0,0,0,0,0,0,0,0,0,0,0,0,-0.2817,-0.2955,-0.2672,-0.2627,-0.2621,-0.2499,-0.2496,-0.2493,-0.2452,-0.2454,-0.2456,-0.2458,-0.2277,-0.2268,-0.2259,-0.2168,0,0,-0.2231,-0.2227,0,0,0,0,0,0,0,0,-0.2825,-0.2806,-0.2636,-0.263,-0.2623,-0.2499,-0.2531,-0.2384,-0.2452,-0.2516,-0.2456,-0.2458,-0.2346,-0.2331,-0.2295,-0.2159,-0.2151,-0.2231,-0.2225,-0.2221,-0.2219,0,0,0,0,0,0,0,-0.2835,-0.2813,-0.2603,-0.2633,-0.2625,-0.2613,-0.2595,-0.2503,-0.2423,-0.2511,-0.2507,-0.2488,-0.2343,-0.2303,-0.229,-0.2148,-0.2231,-0.2223,-0.2217,-0.2214,-0.1929,-0.1927,0,0,0,0,0,0,-0.2854,-0.2822,-0.2608,-0.2598,-0.2731,-0.2607,-0.2586,-0.2537,-0.2424,-0.2408,-0.2486,-0.2486,-0.2318,-0.2301,-0.2283,-0.2168,-0.2221,-0.2213,-0.2208,-0.1931,-0.1929,-0.1926,0,0,0,0,0,0,-0.286,-0.2835,-0.2615,-0.2709,-0.268,-0.26,-0.2545,-0.2533,-0.2493,-0.2406,-0.2391,-0.2461,-0.2319,-0.2296,-0.2197,-0.2162,-0.2209,-0.2201,-0.1934,-0.193,-0.1927,-0.1939,0,0,0,0,0,0,-0.2869,-0.2838,-0.2804,-0.2709,-0.2675,-0.2534,-0.2543,-0.2528,-0.2479,-0.2477,-0.2378,-0.2363,-0.2318,-0.2211,-0.2188,-0.215,-0.2194,-0.1936,-0.1932,-0.1928,-0.1941,-0.1936,-0.1932,0,0,0,0,0,-0.2879,-0.2812,-0.2802,-0.2776,-0.2631,-0.2532,-0.2512,-0.2464,-0.2476,-0.244,-0.2384,-0.2366,-0.217,-0.2201,-0.2175,-0.2134,-0.1938,-0.1933,-0.1929,-0.1943,-0.1937,-0.1932,0,0,0,0,0,0,-0.2902,-0.2799,-0.2786,-0.2687,-0.2619,-0.2525,-0.2478,-0.2459,-0.2384,-0.2386,-0.2327,-0.2305,-0.221,-0.2162,-0.2199,-0.2039,-0.2054,-0.2044,-0.2074,-0.2068,-0.2063,-0.2076,-0.2186,0,0,0,0,0,-0.2897,-0.2827,-0.2739,-0.266,-0.2627,-0.2559,-0.2513,-0.2482,-0.2408,-0.2378,-0.2315,-0.2242,-0.2164,-0.2113,-0.2036,-0.1935,-0.1912,-0.1894,-0.1889,-0.1886,-0.1877,-0.1819,-0.181,-0.191,-0.191,-0.191,0,0,-0.2882,-0.2817,-0.2776,-0.2663,-0.2606,-0.2533,-0.2534,-0.2457,-0.2401,-0.2366,-0.2269,-0.222,-0.2135,-0.2035,-0.1987,-0.1992,-0.1845,-0.188,-0.1878,-0.187,-0.1813,-0.1804,-0.1795,-0.1907,-0.1908,-0.1908,0,0,-0.2819,-0.2764,-0.2691,-0.2635,-0.2551,-0.2506,-0.2489,-0.2398,-0.2365,-0.2268,-0.224,-0.2172,-0.2039,-0.198,-0.1932,-0.1848,-0.1829,-0.1825,-0.18,-0.1745,-0.1737,-0.1729,-0.1698,-0.1688,-0.1817,-0.1817,-0.1817,0,-0.2811,-0.2702,-0.2656,-0.258,-0.2531,-0.2498,-0.2423,-0.2371,-0.2265,-0.223,-0.2238,-0.2071,-0.2011,-0.1896,-0.1876,-0.1839,-0.1816,-0.1835,-0.1742,-0.1734,-0.1726,-0.1696,-0.1685,-0.1817,-0.1817,-0.1817,-0.1817,0,-0.2697,-0.2621,-0.2573,-0.2474,-0.2419,-0.2344,-0.2285,-0.2234,-0.2209,-0.2163,-0.2064,-0.1992,-0.19,-0.187,-0.1843,-0.1751,-0.1757,-0.1754,-0.1767,-0.1718,-0.1688,-0.1676,-0.1817,-0.1817,-0.1817,-0.1817,0,0,-0.264,-0.2519,-0.2501,-0.2456,-0.2361,-0.2301,-0.2225,-0.2137,-0.2095,-0.2023,-0.1956,-0.1845,-0.1843,-0.1789,-0.1755,-0.1706,-0.1644,-0.1709,-0.1706,-0.1698,-0.1536,-0.1538,-0.1525,-0.1632,-0.1629,-0.1627,-0.1543,0,-0.2564,-0.2429,-0.2385,-0.2271,-0.2201,-0.217,-0.2103,-0.2037,-0.1992,-0.1925,-0.1875,-0.1797,-0.18,-0.1767,-0.1718,-0.1662,-0.161,-0.1668,-0.1566,-0.1563,-0.1587,-0.151,-0.1511,-0.1435,-0.1531,-0.1529,-0.1528,0,-0.2457,-0.2386,-0.2266,-0.2181,-0.215,-0.2091,-0.2007,-0.1943,-0.1867,-0.1838,-0.178,-0.175,-0.1667,-0.1688,-0.1572,-0.1612,-0.1569,-0.1535,-0.1531,-0.1518,-0.1541,-0.1493,-0.1409,-0.1397,-0.1509,-0.1511,-0.1512,0,-0.2427,-0.2301,-0.2213,-0.2176,-0.2074,-0.2034,-0.1989,-0.1915,-0.1866,-0.1792,-0.1759,-0.1676,-0.163,-0.1566,-0.1515,-0.1535,-0.1404,-0.1419,-0.1375,-0.1377,-0.1347,-0.1349,-0.1254,-0.1322,-0.1323,-0.1323,-0.1323,0,-0.2345,-0.2272,-0.2198,-0.2144,-0.2061,-0.2012,-0.1931,-0.1884,-0.1819,-0.1754,-0.1722,-0.1661,-0.1598,-0.1528,-0.1487,-0.1397,-0.1377,-0.135,-0.1339,-0.1352,-0.1355,-0.132,-0.1324,-0.132,-0.132,-0.1321,-0.1322,0,-0.2296,-0.2244,-0.2146,-0.2059,-0.2036,-0.1978,-0.1903,-0.1848,-0.1804,-0.1722,-0.1699,-0.1629,-0.1545,-0.1488,-0.1381,-0.1353,-0.1255,-0.1246,-0.1281,-0.1276,-0.1235,-0.1239,-0.1112,-0.1092,-0.1176,-0.1175,-0.1175,0,-0.2247,-0.219,-0.2099,-0.2054,-0.201,-0.1938,-0.1888,-0.1837,-0.1786,-0.1696,-0.1652,-0.1567,-0.1496,-0.1364,-0.1301,-0.1219,-0.1207,-0.1168,-0.1194,-0.1208,-0.1204,-0.1208,-0.1201,-0.1163,-0.1163,-0.1162,-0.1162,0,-0.2164,-0.2142,-0.2072,-0.1993,-0.1935,-0.187,-0.1804,-0.1769,-0.1707,-0.165,-0.1566,-0.1511,-0.1403,-0.1318,-0.123,-0.1182,-0.1161,-0.1155,-0.114,-0.1151,-0.1173,-0.1159,-0.1269,-0.1157,-0.1158,-0.1158,-0.1158,-0.1158,-0.2112,-0.2061,-0.1989,-0.1912,-0.1858,-0.1798,-0.1742,-0.1692,-0.1622,-0.1531,-0.1505,-0.1417,-0.1342,-0.1222,-0.1173,-0.1102,-0.1105,-0.1084,-0.1078,-0.1074,-0.1073,-0.1186,-0.1086,-0.1086,-0.1086,-0.1086,-0.1086,0,-0.2026,-0.1979,-0.191,-0.182,-0.176,-0.1749,-0.1676,-0.1625,-0.1549,-0.1482,-0.1414,-0.1317,-0.1235,-0.1168,-0.1083,-0.1039,-0.1027,-0.1018,-0.102,-0.1009,-0.1076,-0.1096,-0.1029,-0.1029,-0.1029,-0.1029,-0.1029,-0.1029,-0.1975,-0.1887,-0.1856,-0.1741,-0.1694,-0.1609,-0.1568,-0.1512,-0.1459,-0.1353,-0.1286,-0.1243,-0.1176,-0.1086,-0.101,-0.0992,-0.0962,-0.0955,-0.0935,-0.0998,-0.1004,-0.101,-0.1029,-0.0949,-0.0949,-0.0873,-0.0873,-0.0872]}]]